Location: Antioch
(38.0049°N, 121.8058°W)
Time: 06:50:54
(UTC+00:00)

Cosmos 1378 Rocket - Pass Details

Date: 11 February 2026
Orbit: 594 x 620 km, 82.5° (Epoch: 9 March)

Event Time Altitude Azimuth Distance (km) Brightness Sun altitude
Rises 13:21:05 0° 350° (N) 2,840 6.8 -20.3°
Reaches altitude 10° 13:23:18 10° 349° (N) 1,935 6.0 -19.9°
Maximum altitude 13:27:34 74° 265° (W) 624 3.3 -19.0°
Drops below altitude 10° 13:31:48 10° 180° (S) 1,928 6.1 -18.2°
Sets 13:34:00 0° 179° (S) 2,829 7.0 -17.8°
